NOAA 16 DEB

Satellite information

Favourite Embed

Satellite Type and Status

DEBRISIN ORBIT

Key statistics

Satellite NOAA 16 DEB at a glance.

Uptime

9056

Days in orbit

Revolutions

≈ 14.3

Per day

Orbit

SSO

Sun Synchronous Orbit

Inclination

98.9

Latest

Satellite identification and parameters

Extended collection of information and parameters for NOAA 16 DEB.

Object identification

Identified? True

Debris? True

Object name: NOAA 16 DEB

International designator: 2000-055FV

Object number (NORAD): 41269

Object ID (CCSDS): 41269

Country: UNITED STATES OF AMERICA (US)

Current information (Y/N): Y

RCS size: SMALL

Orbital parameters

Period: 100.636 minutes

Inclination: 98.9346 deg

SMA: 7166.861 km

Apoapsis: 807.117 km

Periapsis: 770.335 km

RAAN: 293.3008 deg

Eccentricy: 0.0025661

Argument of periapsis: 139.0633 deg

Mean anomaly: 221.2481 deg

Mean motion: 14.30900086 rev/day

Mean motion (dot): 0.0000565 rev/day2

B* drag term: 0.0021601 1/REarth

Two-line elements (TLE)

Creation date: July 4, 2025, 6:39 p.m.

Reference frame: TEME

Reference center: EARTH

Epoch: July 4, 2025, 2:23 a.m. UTC

TLE line 0: 0 NOAA 16 DEB

TLE line 1: 1 41269U 00055FV 25185.09991883 .00005650 00000-0 21601-2 0 9998

TLE line 2: 2 41269 98.9346 293.3008 0025661 139.0633 221.2481 14.30900086491255

Live tracking on map

Real-time ground track for satellite NOAA 16 DEB.

In-orbit conjunctions

A list of the most updated potential collisions computed for object NOAA 16 DEB.

Target Orbit TCA Probability of collision Miss distance Type
CZ-6A DEB LEO 2025-03-02 03:30:50 0.0002419092 85.0 (m) DEBRIS
CZ-6A DEB LEO 2025-02-15 03:33:42 0.0001738119 345.0 (m) DEBRIS
CZ-6A DEB LEO 2025-01-29 12:14:15 0.0003070948 264.0 (m) DEBRIS

Associated space launch

The NOAA K, L and M POES satellites begin the fifth generation of improved environmental monitoring in support of NOAA missions. The instrument payload has significant improvements and additions/deletions. The instrument changes have effected the spacecraft subsystems and data formats.

NOAA 16 DEB was lifted into orbit during the mission ‘Titan II SLV | NOAA 16’, on board a Titan II SLV space rocket.

The launch took place on Sept. 21, 2000, 10:22 a.m. from Space Launch Complex 4W.

For more information about the launch, click the button.

Launch to space Titan II SLV | NOAA 16
Titan II SLV | NOAA 16

Agency: N/A

Status: Launch Successful

Launch date: Sept. 21, 2000, 10:22 a.m. UTC

Rocket: Titan II SLV

Launch pad: Space Launch Complex 4W

Location: Vandenberg SFB, CA, USA

...

Latest news about this satellite

There are no fresh news available about this satellite. Check back as we update our databases every day.


Newsletter sign-up

Weekly statistics, charts and insights to help you stay on top of the space industry.